Location: Maynard F. Jordan Observatory
(44.9000°N, 68.6700°W)
Time: 16:45:51
(UTC-04:00)

Daily predictions for brighter satellites

Satellite Brightness Start Highest point End
(mag) Time Altitude Azimuth Time Altitude Azimuth Time Altitude Azimuth
Cosmos 1833 Rocket 3.7 19:13:00 10° N 19:17:52 29° NE 19:22:43 10° ESE
Resurs 1-3 4.3 19:15:18 10° SE 19:19:17 35° ENE 19:23:18 10° N
Cosmos 1437 Rocket 2.9 19:17:53 10° S 19:21:55 90° ESE 19:26:02 10° N
FENGYUN 3A 3.7 19:17:01 10° SSE 19:22:23 68° ENE 19:27:45 10° N
Cosmos 2278 Rocket 2.3 19:20:06 10° S 19:25:37 55° ESE 19:31:09 10° NNE
Meteor 1-4 Rocket 3.8 19:23:18 10° SE 19:25:52 19° E 19:28:26 10° NE
USA 215 4.4 19:27:15 10° ENE 19:31:42 19° ESE 19:36:08 10° SSE
SJ-6B 3.0 19:28:56 10° S 19:32:39 71° WSW 19:36:24 10° NNW
Cosmos 1544 3.8 19:30:49 10° SSE 19:34:06 33° E 19:37:26 10° NNE
ATLAS 5 CENTAUR R/B 3.2 19:34:02 10° SSE 19:37:04 17° ESE 19:40:14 10° ENE
Cosmos 1934 Rocket 3.9 19:31:52 10° S 19:37:59 81° E 19:44:04 10° N
CZ-4B DEB 4.3 19:39:31 12° ESE 19:41:20 18° ENE 19:43:33 10° NNE
Cosmos 2297 4.3 19:36:28 10° SSE 19:41:33 34° ESE 19:46:41 10° NE
Okean 3 Rocket 3.6 19:37:25 10° N 19:41:48 62° E 19:46:10 10° SSE
FengYun 1-2 T 4.3 19:38:36 10° SSE 19:44:11 86° WSW 19:49:52 10° NNW
Cosmos 1867 4.2 19:39:56 10° S 19:44:46 34° ESE 19:49:39 10° NE
ISS -1.6 19:45:19 10° SE 19:45:41 10° SE 19:45:41 10° SE
H-2A R/B 2.7 19:44:31 10° SSE 19:48:25 84° ENE 19:52:22 10° N
Spot 2 Rocket 3.5 19:43:55 10° SSE 19:49:00 79° ENE 19:54:09 10° NNW
Tiangong 1 3.5 19:50:13 10° WSW 19:51:52 14° SSW 19:53:30 10° S
Meteor 1-24 Rocket 4.4 19:47:44 10° NNW 19:53:07 59° W 19:58:42 10° S
Abrixas 2.8 19:51:01 10° WNW 19:53:48 52° SSW 19:55:43 17° SE
Cosmos 2082 Rocket 2.4 19:48:16 10° NNW 19:53:53 56° ENE 19:59:16 11° SE
Cosmos 1076 Rocket 3.5 19:51:28 10° N 19:55:39 56° E 19:59:49 10° SSE
Helios 1B rocket 3.1 19:51:55 10° NNE 19:55:42 33° E 19:59:26 10° SSE
Cosmos 1758 3.3 19:53:46 10° S 19:57:39 56° E 20:01:35 10° NNE
Lacrosse 5 2.0 19:53:27 10° SW 19:58:31 79° NW 20:03:37 10° NE
Cosmos 1953 2.3 20:01:38 10° S 20:05:38 64° E 20:09:40 10° NNE
Lacrosse 4 Rocket 3.8 20:02:42 10° WSW 20:06:02 24° NW 20:09:25 10° N
USA 267 4.3 20:00:49 10° ENE 20:06:31 35° NNE 20:12:19 10° NW
Envisat 3.4 20:02:47 13° SE 20:07:07 45° ENE 20:11:57 10° N
GP-B 3.2 20:04:46 10° SSE 20:09:04 52° E 20:13:24 10° N
USA 186 0.6 20:08:21 28° SSE 20:09:19 76° ENE 20:11:32 10° N
Cosmos 1766 Rocket 3.6 20:06:38 10° N 20:11:05 60° E 20:15:22 11° SSE
Helios 1A 2.9 20:07:02 10° SSE 20:11:10 70° ENE 20:15:22 10° N
Cosmos 1939 Rocket 3.5 20:09:38 21° ESE 20:11:47 37° ENE 20:15:38 10° N
H-2A R/B 4.2 20:12:13 10° ENE 20:13:09 11° NE 20:14:16 10° NE
CZ-3 Stage 3 4.3 19:31:09 10° WSW 20:13:58 45° SSW 20:20:19 18° SE
Cosmos 1271 Rocket 3.3 20:11:13 10° SSE 20:14:56 38° E 20:18:41 10° NNE
Resurs 01 Rocket 2.4 20:10:45 10° S 20:15:03 52° W 20:19:24 10° NNW
Cosmos 1125 Rocket 3.4 20:10:40 10° SSW 20:15:50 73° ESE 20:21:04 10° NNE
Cosmos 1048 Rocket 3.9 20:12:18 10° NNW 20:17:28 86° ENE 20:22:08 13° SSE
Geosat 3.9 20:13:47 10° NNE 20:18:49 69° ESE 20:23:48 10° SSW
Cosmos 1605 Rocket 4.4 20:15:23 10° SSW 20:21:38 69° W 20:28:00 10° N
Cosmos 1184 Rocket 4.1 20:19:11 10° NNE 20:21:45 25° ENE 20:21:45 25° ENE
Cosmos 2100 Rocket 4.1 20:17:29 10° SSE 20:23:37 56° E 20:29:50 10° NNE
Cosmos-2242 3.0 20:19:30 10° S 20:23:39 55° E 20:27:49 10° NNE
ERS-1 Rocket 3.6 20:23:22 26° ESE 20:25:21 37° ENE 20:29:58 10° N
Lacrosse 5 rocket 1.4 20:21:32 10° NW 20:25:27 55° NE 20:26:41 36° E
SS 2 4.4 20:23:29 10° NW 20:26:22 73° NE 20:26:59 51° ESE
Fregat R/B Cluster 11 4.0 20:22:46 10° SSW 20:28:25 80° SE 20:31:46 10° NE
Cosmos 1674 2.6 20:25:27 10° N 20:29:14 89° WSW 20:31:54 19° S
SeaSat 1 4.3 20:24:59 10° SSW 20:29:15 29° WSW 20:33:32 10° NW
SJ-11-01 4.2 20:27:38 21° SSE 20:30:44 67° ENE 20:35:26 10° N
SAR-Lupe-4 4.3 20:31:34 11° S 20:34:55 52° W 20:38:26 10° NNW
YAOGAN 6 3.3 20:36:25 36° ENE 20:36:25 36° ENE 20:39:45 10° N
Cosmos 1743 Rocket 3.6 20:38:11 10° N 20:42:36 61° E 20:43:51 42° SE
Cosmos 1500 Rocket 3.8 20:40:10 10° N 20:44:20 46° ENE 20:44:37 45° E
Cosmos 2344 4.4 20:36:49 10° WSW 20:44:22 56° NW 20:53:20 10° NE
BREEZE-M DEB (TANK) 2.6 20:42:31 10° WNW 20:44:40 48° NNE 20:44:40 48° NNE
Cosmos 1802 Rocket 3.9 20:38:44 10° S 20:44:46 64° E 20:50:52 10° NNE
Meteor 1-29 3.0 20:41:21 10° N 20:44:50 78° WNW 20:48:18 10° SSW
OE (NEXTSAT) 4.3 20:44:02 10° W 20:47:38 81° N 20:48:00 69° ENE
Cosmos 1356 Rocket 3.7 20:44:04 10° N 20:47:56 46° ENE 20:47:56 46° ENE
CZ-3B DEB 3.3 20:39:52 10° WSW 20:48:48 48° NNW 20:52:39 13° NE
COSMOS 2487 3.9 20:48:12 10° NW 20:51:31 37° WSW 20:53:15 22° SSW
Cosmos 2251 Rocket 3.7 20:47:11 10° NNW 20:52:26 56° ENE 20:53:40 45° ESE
Cosmos 2061 Rocket 4.0 20:51:52 10° S 20:58:16 87° E 21:04:45 10° N
Timation 2 Rocket 4.4 20:55:29 10° NW 21:01:41 59° WSW 21:05:26 23° S
Cosmos 1626 4.4 20:58:42 10° NNE 20:59:34 14° NNE 20:59:34 14° NNE
Cosmos 1833 Rocket 3.4 20:56:37 10° NW 21:02:01 49° WSW 21:05:39 20° S
MetOp-B 4.2 21:03:35 50° E 21:04:18 54° ENE 21:09:31 10° N
Cosmos 1470 3.6 21:01:26 10° SSW 21:05:19 51° WNW 21:09:13 10° N
NOAA 11 4.3 21:07:15 52° ESE 21:07:59 57° ENE 21:13:23 10° N
Cosmos 2278 Rocket 4.3 21:05:16 10° WSW 21:10:01 27° NW 21:14:51 10° N
Cosmos 1340 Rocket 3.8 21:07:04 10° NNW 21:10:56 45° W 21:12:09 34° SW
Cosmos 1733 4.5 21:10:59 12° SSW 21:14:23 41° WNW 21:18:05 10° N
Cosmos 1459 Rocket 4.3 21:09:06 10° SSW 21:15:18 66° W 21:21:28 10° N
USA 215 3.1 21:08:54 10° NE 21:15:28 72° SE 21:21:58 10° SW
Cosmos 1842 Rocket 3.5 21:18:20 83° NNW 21:18:20 83° NNW 21:22:38 10° N
Cosmos 2058 3.8 21:14:45 10° N 21:17:39 41° NNE 21:17:39 41° NNE
ATLAS 5 CENTAUR R/B 2.1 21:16:21 10° SW 21:21:03 68° NW 21:26:15 10° NE
Cosmos 2173 Rocket 4.4 21:15:00 10° SSW 21:21:05 61° WNW 21:27:19 10° N
Cosmos 2233 Rocket 4.4 21:23:22 42° ENE 21:23:22 42° ENE 21:28:14 10° NNE
Cosmos 2151 3.3 21:19:45 10° N 21:23:15 59° N 21:23:15 59° N
USA 245 4.2 21:24:27 64° E 21:24:48 65° ENE 21:31:00 10° N
Cosmos 1864 Rocket 4.4 21:24:22 50° SSE 21:26:06 77° E 21:32:25 10° N
YAOGAN 11 4.4 21:32:44 70° NW 21:32:44 70° NW 21:36:53 10° NNW
Meteor 1-11 4.3 21:30:12 10° NNW 21:35:46 72° W 21:36:37 61° SSW
Cosmos 494 Rocket 4.2 21:32:00 10° NNW 21:37:03 61° WSW 21:37:19 60° WSW
Cosmos 2082 Rocket 4.2 21:33:08 10° NW 21:37:33 23° WSW 21:41:10 13° SSW
Lacrosse 5 3.8 21:37:53 10° WNW 21:42:10 27° NNW 21:45:24 15° NNE
SPOT 5 3.1 21:45:02 79° WNW 21:45:02 79° WNW 21:50:11 10° NNW
USA 267 3.2 21:48:09 64° ENE 21:48:55 70° NNE 21:55:26 10° NW
MetOp-A 4.4 21:50:03 60° WSW 21:50:14 60° WSW 21:55:34 10° NNW
ARGOS 3.2 21:51:33 73° NW 21:51:33 73° NW 21:56:27 10° NNW
H-2A R/B 2.7 21:52:51 49° NNE 21:52:51 49° NNE 21:56:52 10° N
Meteor 2-1 Rocket 4.4 21:58:48 69° NNW 21:58:48 69° NNW 22:03:53 10° N
Cosmos 1725 Rocket 4.4 21:59:08 42° SW 22:01:01 59° WNW 22:07:09 10° N
Terra 3.5 22:04:46 26° N 22:04:46 26° N 22:06:58 10° N
ERS-1 Rocket 4.5 22:03:22 28° WSW 22:04:11 29° W 22:08:34 10° NW
Lacrosse 5 rocket 4.0 22:01:29 10° WNW 22:02:25 14° W 22:02:25 14° W
H-2A R/B 4.5 22:23:36 18° NNW 22:23:36 18° NNW 22:24:45 10° NNW
Cosmos 2369 Rocket 3.9 22:34:54 26° NNE 22:34:54 26° NNE 22:37:18 10° NNE
Cosmos 2227 Rocket 4.4 22:41:12 10° N 22:43:38 16° NNE 22:43:38 16° NNE
USA 215 4.1 22:52:05 10° NE 22:58:16 47° NNW 23:04:26 10° W
CZ-3B DEB 4.4 22:58:07 10° NW 22:59:39 14° NW 22:59:39 14° NW
Cosmos 1943 Rocket 4.4 23:07:55 17° NNE 23:07:55 17° NNE 23:09:13 10° NNE
ATLAS 5 CENTAUR R/B 4.5 23:03:23 10° WNW 23:06:49 18° NNW 23:10:27 10° NNE
Lacrosse 5 4.5 23:22:46 10° NW 23:24:38 17° NNW 23:24:38 17° NNW
CZ-4C R/B 4.4 23:31:18 22° NNE 23:31:18 22° NNE 23:33:39 10° NNE
